World > North America > United States > California > Seal Beach   City of Seal Beach, CA

Seal Beach, CA Hourly Weather Forecast

Feedback E-mail the Weather

Quick Clicks

Weather World

24 Hour Forecast

Current Conditions - Overcast. Temperature is 62°F17°C, dew point 52°F11°C, humidity 70%. Wind direction is SSW at 5 mph8 km/h with visibility of 7 mi11 km. Barometric pressure is 29.97 in1014 mb.
Today - Mostly cloudy this morning...Becoming mostly sunny. Highs 68 to 72. Light winds becoming southwest 10 mph this afternoon... Full Forecast
Tonight - Partly cloudy in the evening...Becoming mostly cloudy. Lows 50 to 54. Areas of winds southwest 10 mph in the evening becoming ligh.. Full Forecast

Seal Beach Hourly Weather

24 Hour Weather Scroll
Fri, Apr 19
11:00 am
Fri, Apr 19
Noon
Fri, Apr 19
1:00 pm
Fri, Apr 19
2:00 pm
Fri, Apr 19
3:00 pm
Fri, Apr 19
4:00 pm
Fri, Apr 19
5:00 pm
Fri, Apr 19
6:00 pm
Fri, Apr 19
7:00 pm
Fri, Apr 19
8:00 pm
Fri, Apr 19
9:00 pm
Fri, Apr 19
10:00 pm
Fri, Apr 19
11:00 pm
Sat, Apr 20
Midnight
Sat, Apr 20
1:00 am
Sat, Apr 20
2:00 am
Sat, Apr 20
3:00 am
Sat, Apr 20
4:00 am
Sat, Apr 20
5:00 am
Sat, Apr 20
6:00 am
Sat, Apr 20
7:00 am
Sat, Apr 20
8:00 am
Sat, Apr 20
9:00 am
Sat, Apr 20
10:00 am
OvercastSunnySunnySunnySunnySunnySunnySunnySunnyClear Clear Clear Clear Clear Clear Clear Clear Partly Cloudy Partly Cloudy Partly Cloudy SunnyPartly Cloudy Partly Cloudy Sunny
Overcast Sunny Sunny Sunny Sunny Sunny Sunny Sunny Sunny Clear Clear Clear Clear Clear Clear Clear Clear Partly Cloudy Partly Cloudy Partly Cloudy Sunny Partly Cloudy Partly Cloudy Sunny
62°F17°C 62°F17°C 62°F17°C 63°F17°C 63°F17°C 62°F17°C 62°F17°C 61°F16°C 61°F16°C 60°F16°C 60°F15°C 59°F15°C 59°F15°C 59°F15°C 58°F15°C 58°F15°C 58°F14°C 58°F14°C 58°F14°C 58°F14°C 58°F15°C 59°F15°C 61°F16°C 62°F17°C
50°F
10°C
50°F
10°C
50°F
10°C
49°F
10°C
50°F
10°C
50°F
10°C
51°F
10°C
51°F
11°C
52°F
11°C
52°F
11°C
53°F
11°C
53°F
11°C
53°F
12°C
53°F
12°C
53°F
12°C
53°F
11°C
53°F
11°C
53°F
11°C
53°F
11°C
53°F
11°C
53°F
11°C
52°F
11°C
52°F
11°C
52°F
11°C
29.97 in
1015 mb
29.97 in
1015 mb
29.94 in
1014 mb
29.94 in
1014 mb
29.91 in
1013 mb
29.91 in
1013 mb
29.91 in
1013 mb
29.91 in
1013 mb
29.91 in
1013 mb
29.94 in
1014 mb
29.97 in
1015 mb
29.97 in
1015 mb
29.97 in
1015 mb
29.97 in
1015 mb
29.97 in
1015 mb
29.97 in
1015 mb
29.97 in
1015 mb
29.97 in
1015 mb
29.97 in
1015 mb
30 in
1016 mb
30 in
1016 mb
30.03 in
1017 mb
30.03 in
1017 mb
30.03 in
1017 mb
71%63%62%62%62%64%66%68%72%76%78%79%80%80%81%82%82%82%83%83%82%79%75%70%
SSWSWSWSWSWSWSWSWSWSWSWSSWSSWSSWSSWSSSSSSESSESSESSESSE
4 mph
7 km/h
9 mph
14 km/h
9 mph
14 km/h
9 mph
15 km/h
10 mph
16 km/h
11 mph
17 km/h
9 mph
15 km/h
9 mph
14 km/h
8 mph
13 km/h
8 mph
12 km/h
7 mph
11 km/h
6 mph
10 km/h
5 mph
8 km/h
6 mph
9 km/h
6 mph
10 km/h
5 mph
8 km/h
5 mph
9 km/h
5 mph
8 km/h
4 mph
7 km/h
4 mph
7 km/h
4 mph
7 km/h
5 mph
8 km/h
5 mph
8 km/h
6 mph
9 km/h
0%0%0%0%0%0%0%0%0%0%0%0%0%0%0%0%0%0%0%0%0%0%0%0%
7 mi
11 km
6 mi
10 km
6 mi
10 km
6 mi
10 km
6 mi
10 km
6 mi
10 km
6 mi
10 km
6 mi
10 km
6 mi
10 km
6 mi
10 km
6 mi
10 km
6 mi
10 km
6 mi
10 km
6 mi
10 km
6 mi
10 km
6 mi
10 km
6 mi
10 km
6 mi
10 km
6 mi
10 km
6 mi
10 km
6 mi
10 km
6 mi
10 km
6 mi
10 km
6 mi
10 km

Day/Time
Weather
Condition
Temperature
Dew Point
Pressure
Humidity
Wind Direction
Wind Speed
Prob Precip %
Visibility
POP = Probability of Precipitation. ** Indicates missing data/values from KSLI model statistics.

Trending Headlines

Trending Entertainment Headlines

Seal Beach Radar Loop

Use the map search tool if you want to place a location marker on the radar map...

48 Hour API Forecast

Prob Precip % = Probability of Precipitation.

Seal Beach 36 Hour Forecast

POP = Probability of Precipitation. ** Indicates missing data/values from model statistics.

E-mail the Seal Beach Weather Forecast

Voice your opinion or tell us about page issues...

Seal Beach CA Weather - 2:33 pm

What are people saying?

Contact Us